Flag for U.S.A. Weather past 2 weeks in Trenton, New Jersey, U.S.A.

Now
46 °F

Clear.


Feels Like: 42 °F
Forecast: 48 / 69 °F
Wind: 8 mph from North

Location: Mercer County Airport

Current Time: May 23, 2015 at 6:20:15 AM

Latest Report: May 23, 2015 at 5:53 AM


Visibility: 10 mi

Pressure: 30.31 "Hg

Humidity: 48%

Dew point: 27 °F

Location of TrentonLocation

Historic Weather in Trenton — Graph

°F

Trenton temperature yesterday

Maximum temperature yesterday: 74 °F (at 2:53 PM)
Minimum temperature yesterday: 49 °F (at 4:53 AM)
Average temperature yesterday: 62 °F

Past Weeks' High & Low Weather Summary

 TemperatureHumidityPressure
High85 °F (May 12, 4:53 PM)100% (May 18, 11:53 PM)30.40 "Hg (May 18, 11:53 PM)
Low47 °F (May 14, 4:53 AM)23% (May 14, 5:53 PM)29.75 "Hg (May 12, 6:53 PM)
Average65 °F66%30.07 "Hg
* Reported May 8 4:53 AM — May 23 4:53 AM, Trenton, Weather by CustomWeather, © 2015

Note: Actual official high and low records may vary slightly from our data, if they occured in-between our weather recording intervals... More about our weather records

Advertising

Trenton weather history for previous 24 hours

 ConditionsComfort  
Time TempWeatherWind HumidityBarometerVisibility
4:53 AM
Sat, May 23
48 °FClear.7 mph44%30.29 "Hg10 mi
3:53 AM49 °FClear.6 mph52%30.27 "Hg10 mi
2:53 AM51 °FClear.5 mph56%30.24 "Hg10 mi
1:53 AM52 °FClear.5 mph55%30.21 "Hg10 mi
12:53 AM56 °FClear.5 mph46%30.18 "Hg10 mi
11:53 PM
Fri, May 22
58 °FClear.6 mph43%30.14 "Hg10 mi
10:53 PM60 °FClear.8 mph41%30.12 "Hg10 mi
9:53 PM63 °FClear.7 mph38%30.07 "Hg10 mi
8:53 PM65 °FSunny.3 mph42%30.03 "Hg10 mi
7:53 PM67 °FSunny.3 mph42%30.00 "Hg10 mi
6:53 PM68 °FSunny.9 mph42%29.98 "Hg10 mi
5:53 PM67 °FMostly cloudy.15 mph44%29.98 "Hg10 mi
4:53 PM74 °FPassing clouds.17 mph28%29.94 "Hg10 mi
3:53 PM73 °FPartly sunny.14 mph32%29.94 "Hg10 mi
2:53 PM74 °FScattered clouds.16 mph31%29.94 "Hg10 mi
1:53 PM73 °FPassing clouds.17 mph32%29.94 "Hg10 mi
12:53 PM72 °FSunny.15 mph31%29.93 "Hg10 mi
11:53 AM72 °FSunny.15 mph31%29.94 "Hg10 mi
10:53 AM67 °FSunny.10 mph39%29.95 "Hg10 mi
9:53 AM64 °FSunny.10 mph45%29.95 "Hg10 mi
8:53 AM60 °FSunny.10 mph53%29.94 "Hg10 mi
7:53 AM55 °FSunny.8 mph64%29.93 "Hg10 mi
6:53 AM51 °FSunny.7 mph80%29.92 "Hg10 mi
Weather by CustomWeather, © 2015

See weather overviewHow to use our weather pages